Regional Weather Roundup
Issued by NWS

Home | Current Version | Previous Version | Text Only | Print | Product List | Glossary Off
Versions: 1 2 3 4 5 6 7 8 9 10 11 12 13 14 15 16 17 18 19 20 21 22 23 24 25 26 27 28 29 30 31 32 33 34 35 36 37 38 39 40 41 42 43 44 45 46 47 48 49 50

000
ASUS45 KPSR 180410
RWRAZ

ARIZONA REGIONAL HOURLY WEATHER ROUNDUP
NATIONAL WEATHER SERVICE PHOENIX AZ
900 PM MST WED DEC 17 2014

NOTE: FAIR INDICATES FEW OR NO CLOUDS BELOW 12,000 FEET WITH NO
SIGNIFICANT WEATHER AND/OR OBSTRUCTIONS TO VISIBILITY.

AZZ001>003-036-180500-
NORTHWEST ARIZONA

CITY           SKY/WX    TMP DP  RH WIND       PRES   REMARKS
BULLHEAD CITY  CLOUDY    52  50  93 CALM      30.12R
KINGMAN        PTCLDY    41  39  93 CALM      30.09S
$$

AZZ004>008-015-016-018-180500-
NORTH CENTRAL ARIZONA

CITY           SKY/WX    TMP DP  RH WIND       PRES   REMARKS
GRAND CANYON   LGT SNOW  32  32 100 CALM      30.09R FOG
PRESCOTT       CLOUDY    37  33  85 SW6       30.11R WCI  32
FLAGSTAFF      CLOUDY    31  29  92 SW3       30.09R
PAYSON         MOCLDY    36  34  93 E3        30.14R
PAGE           CLEAR     37  32  82 SW3       30.07R
$$

AZZ009>014-017-180500-
NORTHEAST ARIZONA

CITY           SKY/WX    TMP DP  RH WIND       PRES   REMARKS
WINSLOW        MOCLDY    37  32  82 S8        30.10R WCI  31
SAINT JOHNS    CLEAR     35  29  78 W12       30.09R WCI  27
WINDOW ROCK    PTCLDY    29  25  85 S7        30.08R WCI  22
SHOW LOW       CLOUDY    32  28  86 S13       30.13S WCI  22
$$

AZZ023-180500-
GREATER PHOENIX AREA

CITY           SKY/WX    TMP DP  RH WIND       PRES   REMARKS
PHOENIX        MOCLDY    55  46  71 E5        30.10R
BUCKEYE          N/A     48  48 100 E3        30.12R
LUKE AFB       CLOUDY    50  49  94 NW5       30.11R
DEER VALLEY    CLEAR     50  43  77 E5        30.11R
SCOTTSDALE     CLOUDY    52  45  77 CALM      30.12R
MESA-GATEWAY   CLOUDY    52  48  87 CALM      30.13R
CHANDLER       MOCLDY    55  50  82 VRB5      30.12R
$$

AZZ027-028-180500-
SOUTHWEST MARICOPA COUNTY AND PINAL COUNTY

CITY           SKY/WX    TMP DP  RH WIND       PRES   REMARKS
CASA GRANDE    CLOUDY    52  48  87 CALM      30.13R
GILA BEND      PTCLDY    53  50  90 SE1       30.12R
$$

AZZ503-504-507>509-180500-
SOUTHEAST ARIZONA

CITY           SKY/WX    TMP DP  RH WIND       PRES   REMARKS
TUCSON         CLOUDY    50  47  89 NE5       30.15S
DAVIS-MONTHAN  MOCLDY    48  48 100 E5        30.13S
NOGALES        MOCLDY    48  42  80 CALM      30.14R
SIERRA VISTA   MOCLDY    48  46  93 SW7       30.14R
DOUGLAS        MOCLDY    46  38  73 SW5       30.15R
SAFFORD        LGT RAIN  46  44  93 W5        30.13R
$$

AZZ020-021-025-026-031-180500-
SOUTHWEST ARIZONA

CITY           SKY/WX    TMP DP  RH WIND       PRES   REMARKS
YUMA           PTCLDY   N/A N/A N/A CALM      30.10R
$$

CAZ031-033-041-043-047-048-061-180500-
SOUTHERN CALIFORNIA

CITY           SKY/WX    TMP DP  RH WIND       PRES   REMARKS
DOWNTOWN L.A.  PTCLDY    56  45  66 CALM      30.08R
L.A. AIRPORT   PTCLDY    59  43  55 CALM      30.09R
SAN DIEGO      CLOUDY    61  43  51 CALM      30.13S
BURBANK        PTCLDY    55  44  66 N3        30.08R
ONTARIO        CLOUDY    56  44  64 CALM      30.08S
RIVERSIDE      CLOUDY    55  44  66 CALM      30.09S
PALM SPRINGS   CLOUDY    56  48  74 W3        30.11R
EL CENTRO NAS  CLOUDY    55  52  89 CALM      30.09R FOG
IMPERIAL       CLOUDY    54  51  90 CALM      30.09R FOG
BLYTHE         MOCLDY    53  50  89 NE3       30.09R
NEEDLES        CLOUDY    53  48  83 N3        30.10R
$$

NVZ020-UTZ003-180500-
SOUTHERN NEVADA-UTAH

CITY           SKY/WX    TMP DP  RH WIND       PRES   REMARKS
LAS VEGAS      CLOUDY    50  44  80 SE5       30.04R
SALT LAKE CITY CLOUDY    34  31  88 NE3       30.05R
$$

NMZ009-TXZ055-180500-
NEW MEXICO-WEST TEXAS

CITY           SKY/WX    TMP DP  RH WIND       PRES   REMARKS
ALBUQUERQUE    MOCLDY    37  35  92 SE6       30.08R WCI  32
EL PASO        PTCLDY    49  35  58 W5        30.11R
$$


........................KEY........................
SKY/WX - SKY CONDITION/WEATHER
TMP    - TEMPERATURE IN FAHRENHEIT
DP     - DEW POINT IN FAHRENHEIT
RH     - RELATIVE HUMIDITY IN PERCENT
WIND   - DIRECTION AND SPEED IN MILES PER HOUR (MPH)
VRB    - VARIABLE WIND DIRECTION
PRES   - MEAN SEA LEVEL PRESSURE IN INCHES OF MERCURY
         F - FALLING PRESSURE   R - RISING PRESSURE
         S - STEADY PRESSURE
VSB    - VISIBILITY IN MILES
HX     - HEAT INDEX IN FAHRENHEIT
WCI    - WIND CHILL INDEX IN FAHRENHEIT
TC     - TEMPERATURE IN CELSIUS WHICH IS ALSO KNOWN AS
         TEMPERATURE IN CENTIGRADE
AFB    - AIR FORCE BASE
         LUKE AFB IS LUKE AIR FORCE BASE
         DAVIS-MONTHAN IS DAVIS-MONTHAN AIR FORCE BASE
NAS    - NAVAL AIR STATION
         EL CENTRO NAS IS EL CENTRO NAVAL AIR STATION
N/A    - NOT AVAILABLE



USA.gov is the U.S. government's official web portal to all federal, state and local government web resources and services.